Time,TemperatureF,DewpointF,PressureIn,WindDirection,WindDirectionDegrees,WindSpeedMPH,WindSpeedGustMPH,Humidity,HourlyPrecipIn,Conditions,Clouds,dailyrainin,SolarRadiationWatts/m^2,SoftwareType,DateUTC
2013-11-21 00:02:00,78.1,75.9,30.02,ENE,69,0.0,0.0,93,0.00,,,0.00,0.0,meteohub,2013-11-21 04:02:00,
2013-11-21 00:07:00,78.1,75.9,30.02,ENE,69,0.0,0.0,93,0.00,,,0.00,0.0,meteohub,2013-11-21 04:07:00,
2013-11-21 00:12:00,78.1,75.9,30.02,ENE,69,0.0,0.0,93,0.00,,,0.00,0.0,meteohub,2013-11-21 04:12:00,
2013-11-21 00:17:00,78.1,75.9,30.02,ENE,68,0.0,0.0,93,0.00,,,0.00,0.0,meteohub,2013-11-21 04:17:00,
2013-11-21 00:22:00,77.9,75.7,30.02,ENE,69,0.0,0.0,93,0.00,,,0.00,0.0,meteohub,2013-11-21 04:22:00,
2013-11-21 00:27:00,77.9,75.7,30.02,ENE,69,0.0,0.0,93,0.00,,,0.00,0.0,meteohub,2013-11-21 04:27:00,
2013-11-21 00:32:00,77.9,75.7,30.02,ENE,69,0.0,0.0,93,0.00,,,0.00,0.0,meteohub,2013-11-21 04:32:00,
2013-11-21 00:37:00,78.1,75.9,30.02,ENE,59,0.0,0.0,93,0.00,,,0.00,0.0,meteohub,2013-11-21 04:37:00,
2013-11-21 00:42:00,78.1,76.3,30.02,NE,54,0.0,0.0,94,0.00,,,0.00,0.0,meteohub,2013-11-21 04:42:00,
2013-11-21 00:47:00,78.1,76.3,30.02,NE,47,0.0,0.0,94,0.00,,,0.00,0.0,meteohub,2013-11-21 04:47:00,
2013-11-21 00:52:00,78.1,76.3,30.02,NE,45,0.0,0.0,94,0.00,,,0.00,0.0,meteohub,2013-11-21 04:52:00,
2013-11-21 00:57:00,78.1,76.3,30.01,NE,44,0.0,0.0,94,0.00,,,0.00,0.0,meteohub,2013-11-21 04:57:00,
2013-11-21 01:01:00,77.9,76.1,30.01,NE,44,0.0,0.0,94,0.00,,,0.00,0.0,meteohub,2013-11-21 05:01:00,
2013-11-21 01:02:00,77.9,76.1,30.01,NE,45,0.0,0.0,94,0.00,,,0.00,0.0,meteohub,2013-11-21 05:02:00,
2013-11-21 01:07:00,77.9,76.1,30.01,NE,45,0.0,0.0,94,0.00,,,0.00,0.0,meteohub,2013-11-21 05:07:00,
2013-11-21 01:12:00,77.7,76.1,30.01,NE,45,0.0,0.0,95,0.00,,,0.00,0.0,meteohub,2013-11-21 05:12:00,
2013-11-21 01:17:00,77.7,76.1,30.01,NE,45,0.0,0.0,95,0.00,,,0.00,0.0,meteohub,2013-11-21 05:17:00,
2013-11-21 01:22:00,77.7,76.1,30.01,NE,47,0.0,0.0,95,0.00,,,0.00,0.0,meteohub,2013-11-21 05:22:00,
2013-11-21 01:27:00,77.7,76.1,30.01,NE,45,0.0,0.0,95,0.00,,,0.00,0.0,meteohub,2013-11-21 05:27:00,
2013-11-21 01:32:00,77.7,76.5,30.01,SE,141,102.0,103.0,96,0.00,,,0.00,0.0,meteohub,2013-11-21 05:32:00,
2013-11-21 01:37:00,77.5,76.3,30.01,SSE,167,112.0,112.0,96,0.07,,,0.07,0.0,meteohub,2013-11-21 05:37:00,
2013-11-21 01:42:00,77.2,75.9,30.01,SSE,162,112.0,113.0,96,0.11,,,0.11,0.0,meteohub,2013-11-21 05:42:00,
2013-11-21 01:47:00,77.0,76.1,30.01,SSE,158,112.0,113.0,97,0.12,,,0.12,0.0,meteohub,2013-11-21 05:47:00,
2013-11-21 01:52:00,76.8,76.3,30.01,SSE,155,112.0,113.0,98,0.12,,,0.12,0.0,meteohub,2013-11-21 05:52:00,
2013-11-21 01:57:00,76.8,76.3,30.00,SSE,158,112.0,113.0,98,0.13,,,0.13,0.0,meteohub,2013-11-21 05:57:00,
2013-11-21 02:02:00,76.6,76.1,30.00,SSE,157,112.0,113.0,98,0.13,,,0.13,0.0,meteohub,2013-11-21 06:02:00,
2013-11-21 02:07:00,76.6,76.1,30.00,SSE,160,112.0,113.0,98,0.13,,,0.13,0.0,meteohub,2013-11-21 06:07:00,
2013-11-21 02:12:00,76.5,76.1,30.00,SSE,158,112.0,113.0,99,0.13,,,0.13,0.0,meteohub,2013-11-21 06:12:00,
2013-11-21 02:17:00,76.5,76.1,30.00,SSE,158,112.0,113.0,99,0.13,,,0.13,0.0,meteohub,2013-11-21 06:17:00,
2013-11-21 02:22:00,76.5,76.1,30.00,SSE,160,112.0,112.0,99,0.13,,,0.13,0.0,meteohub,2013-11-21 06:22:00,
2013-11-21 02:27:00,76.5,76.1,29.99,SSE,157,112.0,113.0,99,0.13,,,0.13,0.0,meteohub,2013-11-21 06:27:00,
2013-11-21 02:32:00,76.6,76.6,29.99,SSE,155,112.0,113.0,100,0.10,,,0.13,0.0,meteohub,2013-11-21 06:32:00,
2013-11-21 02:37:00,76.5,76.5,29.99,SSE,157,112.0,113.0,100,0.03,,,0.13,0.0,meteohub,2013-11-21 06:37:00,
2013-11-21 02:42:00,76.5,76.5,29.99,SSE,157,112.0,113.0,100,0.03,,,0.14,0.0,meteohub,2013-11-21 06:42:00,
2013-11-21 02:47:00,76.5,76.5,29.99,SSE,158,112.0,113.0,100,0.02,,,0.14,0.0,meteohub,2013-11-21 06:47:00,
2013-11-21 02:52:00,76.3,76.3,29.99,SSE,160,112.0,113.0,100,0.01,,,0.14,0.0,meteohub,2013-11-21 06:52:00,
2013-11-21 02:57:00,76.3,76.3,29.99,SSE,157,112.0,113.0,100,0.01,,,0.14,0.0,meteohub,2013-11-21 06:57:00,
2013-11-21 03:02:00,76.3,76.3,29.99,SSE,162,112.0,113.0,100,0.01,,,0.14,0.0,meteohub,2013-11-21 07:02:00,
2013-11-21 03:07:00,76.3,76.3,29.99,SSE,157,112.0,113.0,100,0.01,,,0.14,0.0,meteohub,2013-11-21 07:07:00,
2013-11-21 03:12:00,76.3,76.3,29.99,West,268,112.0,113.0,100,0.01,,,0.14,0.0,meteohub,2013-11-21 07:12:00,
2013-11-21 03:17:00,76.3,76.3,29.99,West,268,112.0,113.0,100,0.03,,,0.16,0.0,meteohub,2013-11-21 07:17:00,
2013-11-21 03:23:00,76.1,76.1,29.99,West,270,112.0,113.0,100,0.15,,,0.28,0.0,meteohub,2013-11-21 07:23:00,
2013-11-21 03:28:00,75.9,75.9,29.99,West,267,112.0,113.0,100,0.16,,,0.29,0.0,meteohub,2013-11-21 07:28:00,
2013-11-21 03:33:00,75.6,75.6,29.99,West,270,40.0,113.0,100,0.17,,,0.30,0.0,meteohub,2013-11-21 07:33:00,
2013-11-21 03:38:00,75.4,75.4,29.99,West,267,0.0,113.0,100,0.17,,,0.30,0.0,meteohub,2013-11-21 07:38:00,
2013-11-21 03:43:00,75.4,75.4,29.99,West,267,0.0,113.0,100,0.16,,,0.30,0.0,meteohub,2013-11-21 07:43:00,
2013-11-21 03:48:00,75.4,75.4,29.99,West,268,0.0,113.0,100,0.16,,,0.30,0.0,meteohub,2013-11-21 07:48:00,
2013-11-21 03:53:00,75.4,75.4,29.99,West,268,0.0,102.0,100,0.16,,,0.30,0.0,meteohub,2013-11-21 07:53:00,
2013-11-21 03:58:00,75.4,75.4,29.98,West,267,0.0,0.0,100,0.16,,,0.30,0.0,meteohub,2013-11-21 07:58:00,
2013-11-21 04:03:00,75.4,75.4,29.98,WSW,240,0.0,0.0,100,0.16,,,0.30,0.0,meteohub,2013-11-21 08:03:00,
2013-11-21 04:08:00,75.4,75.4,29.98,WSW,240,0.0,8.0,100,0.16,,,0.30,0.0,meteohub,2013-11-21 08:08:00,
2013-11-21 04:13:00,75.4,75.4,29.98,WSW,239,0.0,8.0,100,0.16,,,0.30,0.0,meteohub,2013-11-21 08:13:00,
2013-11-21 04:18:00,75.4,75.4,29.98,WSW,239,0.0,8.0,100,0.11,,,0.30,0.0,meteohub,2013-11-21 08:18:00,
2013-11-21 04:23:00,75.4,75.4,29.98,WSW,241,0.0,0.0,100,0.02,,,0.30,0.0,meteohub,2013-11-21 08:23:00,
2013-11-21 04:28:00,75.4,75.4,29.98,WSW,240,0.0,0.0,100,0.00,,,0.30,0.0,meteohub,2013-11-21 08:28:00,
2013-11-21 04:33:00,75.4,75.4,29.98,NW,311,0.0,0.0,100,0.00,,,0.30,0.0,meteohub,2013-11-21 08:33:00,
2013-11-21 04:38:00,75.4,75.4,29.98,NW,311,0.0,0.0,100,0.00,,,0.30,0.0,meteohub,2013-11-21 08:38:00,
2013-11-21 04:43:00,75.4,75.4,29.98,NW,306,0.0,0.0,100,0.00,,,0.30,0.0,meteohub,2013-11-21 08:43:00,
2013-11-21 04:48:00,75.0,75.0,29.98,NW,308,0.0,0.0,100,0.00,,,0.30,0.0,meteohub,2013-11-21 08:48:00,
2013-11-21 04:53:00,75.0,75.0,29.98,WSW,241,0.0,0.0,100,0.00,,,0.30,0.0,meteohub,2013-11-21 08:53:00,
2013-11-21 04:58:00,75.0,75.0,29.99,WSW,241,0.0,5.0,100,0.00,,,0.30,0.0,meteohub,2013-11-21 08:58:00,
2013-11-21 05:03:00,75.0,75.0,29.99,WSW,239,0.0,5.0,100,0.00,,,0.30,0.0,meteohub,2013-11-21 09:03:00,
2013-11-21 05:08:00,75.0,75.0,29.99,WSW,240,0.0,5.0,100,0.00,,,0.30,0.0,meteohub,2013-11-21 09:08:00,
2013-11-21 05:13:00,74.8,74.8,29.99,WSW,240,0.0,0.0,100,0.00,,,0.30,0.0,meteohub,2013-11-21 09:13:00,
2013-11-21 05:18:00,74.8,74.8,29.99,WSW,241,0.0,0.0,100,0.00,,,0.30,0.0,meteohub,2013-11-21 09:18:00,
2013-11-21 05:23:00,74.8,74.8,29.99,WSW,240,0.0,0.0,100,0.00,,,0.30,0.0,meteohub,2013-11-21 09:23:00,
2013-11-21 05:28:00,74.8,74.8,29.99,WSW,240,0.0,0.0,100,0.00,,,0.30,0.0,meteohub,2013-11-21 09:28:00,
2013-11-21 05:33:00,74.8,74.8,29.99,WSW,240,0.0,0.0,100,0.00,,,0.30,0.0,meteohub,2013-11-21 09:33:00,
2013-11-21 05:38:00,74.8,74.8,29.99,WSW,241,0.0,0.0,100,0.00,,,0.30,0.0,meteohub,2013-11-21 09:38:00,
2013-11-21 05:43:00,74.8,74.8,30.00,NNW,347,0.0,0.0,100,0.00,,,0.30,0.0,meteohub,2013-11-21 09:43:00,
2013-11-21 05:48:00,75.0,75.0,30.00,NNW,347,0.0,0.0,100,0.04,,,0.34,0.0,meteohub,2013-11-21 09:48:00,
2013-11-21 05:53:00,75.0,75.0,30.00,NNW,346,0.0,0.0,100,0.09,,,0.39,0.0,meteohub,2013-11-21 09:53:00,
2013-11-21 05:58:00,75.0,75.0,30.01,NNW,346,0.0,0.0,100,0.11,,,0.41,0.0,meteohub,2013-11-21 09:58:00,
2013-11-21 06:03:00,75.0,75.0,30.01,NNW,346,0.0,0.0,100,0.13,,,0.43,0.0,meteohub,2013-11-21 10:03:00,
2013-11-21 06:08:00,75.0,75.0,30.01,North,354,0.0,0.0,100,0.16,,,0.46,0.0,meteohub,2013-11-21 10:08:00,
2013-11-21 06:13:00,75.0,75.0,30.01,North,353,0.0,0.0,100,0.23,,,0.53,0.0,meteohub,2013-11-21 10:13:00,
2013-11-21 06:18:00,75.0,75.0,30.01,North,0,3.0,0.0,100,0.25,,,0.54,0.0,meteohub,2013-11-21 10:18:00,
2013-11-21 06:23:00,75.0,75.0,30.01,North,357,0.0,2.0,100,0.25,,,0.55,0.0,meteohub,2013-11-21 10:23:00,
2013-11-21 06:28:00,75.0,75.0,30.02,North,359,0.0,7.0,100,0.25,,,0.55,0.0,meteohub,2013-11-21 10:28:00,
2013-11-21 06:33:00,75.0,75.0,30.02,North,357,0.0,7.0,100,0.25,,,0.55,0.0,meteohub,2013-11-21 10:33:00,
2013-11-21 06:38:00,75.0,75.0,30.02,North,357,0.0,0.0,100,0.25,,,0.55,7.0,meteohub,2013-11-21 10:38:00,
2013-11-21 06:43:00,75.4,75.4,30.01,North,359,0.0,0.0,100,0.25,,,0.55,14.0,meteohub,2013-11-21 10:43:00,
2013-11-21 06:48:00,75.4,75.4,30.01,North,359,0.0,0.0,100,0.19,,,0.55,14.0,meteohub,2013-11-21 10:48:00,
2013-11-21 06:53:00,75.4,75.4,30.01,North,359,0.0,0.0,100,0.15,,,0.55,21.0,meteohub,2013-11-21 10:53:00,
2013-11-21 06:58:00,75.4,75.4,30.01,North,357,0.0,0.0,100,0.14,,,0.55,28.0,meteohub,2013-11-21 10:58:00,
2013-11-21 07:03:00,75.4,75.4,30.01,North,359,0.0,0.0,100,0.12,,,0.55,42.0,meteohub,2013-11-21 11:03:00,
2013-11-21 07:08:00,75.4,75.4,30.01,North,359,0.0,0.0,100,0.05,,,0.55,60.0,meteohub,2013-11-21 11:08:00,
2013-11-21 07:13:00,75.4,75.4,30.02,North,359,0.0,0.0,100,0.02,,,0.55,21.0,meteohub,2013-11-21 11:13:00,
2013-11-21 07:18:00,75.4,75.4,30.02,ENE,72,11.0,0.0,100,0.01,,,0.56,33.0,meteohub,2013-11-21 11:18:00,
2013-11-21 07:23:00,74.7,74.7,30.02,NE,41,7.0,19.0,100,0.19,,,0.74,121.0,meteohub,2013-11-21 11:23:00,
2013-11-21 07:28:00,74.7,74.7,30.03,ENE,69,0.0,19.0,100,0.23,,,0.78,160.0,meteohub,2013-11-21 11:28:00,
2013-11-21 07:33:00,74.8,74.8,30.03,ENE,69,0.0,19.0,100,0.24,,,0.79,151.0,meteohub,2013-11-21 11:33:00,
2013-11-21 07:38:00,75.0,75.0,30.03,East,88,0.0,15.0,100,0.24,,,0.79,150.0,meteohub,2013-11-21 11:38:00,
2013-11-21 07:43:00,75.0,75.0,30.04,East,85,0.0,6.0,100,0.24,,,0.79,144.0,meteohub,2013-11-21 11:43:00,
2013-11-21 07:48:00,75.0,75.0,30.04,East,83,0.0,6.0,100,0.24,,,0.79,162.0,meteohub,2013-11-21 11:48:00,
2013-11-21 07:53:00,75.4,75.4,30.04,East,85,0.0,6.0,100,0.24,,,0.79,135.0,meteohub,2013-11-21 11:53:00,
2013-11-21 07:58:00,75.4,75.4,30.04,East,85,0.0,0.0,100,0.24,,,0.79,128.0,meteohub,2013-11-21 11:58:00,
2013-11-21 08:03:00,75.4,75.4,30.04,East,83,0.0,0.0,100,0.24,,,0.79,127.0,meteohub,2013-11-21 12:03:00,
2013-11-21 08:08:00,75.4,75.4,30.04,East,85,0.0,0.0,100,0.24,,,0.79,134.0,meteohub,2013-11-21 12:08:00,
2013-11-21 08:13:00,75.6,75.6,30.04,East,85,0.0,0.0,100,0.23,,,0.79,157.0,meteohub,2013-11-21 12:13:00,
2013-11-21 08:18:00,75.6,75.6,30.04,East,83,0.0,0.0,100,0.15,,,0.79,162.0,meteohub,2013-11-21 12:18:00,
2013-11-21 08:23:00,75.7,75.7,30.04,East,85,0.0,0.0,100,0.03,,,0.79,179.0,meteohub,2013-11-21 12:23:00,
2013-11-21 08:28:00,75.7,75.7,30.04,East,85,0.0,0.0,100,0.01,,,0.79,230.0,meteohub,2013-11-21 12:28:00,
2013-11-21 08:33:00,76.1,76.1,30.04,East,85,0.0,0.0,100,0.00,,,0.79,355.0,meteohub,2013-11-21 12:33:00,
2013-11-21 08:38:00,76.5,76.5,30.04,East,83,0.0,0.0,100,0.00,,,0.79,306.0,meteohub,2013-11-21 12:38:00,
2013-11-21 08:43:00,76.6,76.6,30.04,East,85,0.0,0.0,100,0.00,,,0.79,572.0,meteohub,2013-11-21 12:43:00,
2013-11-21 08:48:00,77.0,77.0,30.04,East,83,0.0,0.0,100,0.00,,,0.79,572.0,meteohub,2013-11-21 12:48:00,
2013-11-21 08:53:00,77.5,77.5,30.04,East,85,5.0,0.0,100,0.00,,,0.79,257.0,meteohub,2013-11-21 12:53:00,
2013-11-21 08:58:00,77.4,77.4,30.04,East,82,0.0,5.0,100,0.00,,,0.79,74.0,meteohub,2013-11-21 12:58:00,
2013-11-21 09:03:00,77.0,77.0,30.04,ENE,76,11.0,11.0,100,0.00,,,0.79,176.0,meteohub,2013-11-21 13:03:00,
2013-11-21 09:08:00,76.5,76.5,30.04,East,86,0.0,13.0,100,0.00,,,0.79,713.0,meteohub,2013-11-21 13:08:00,
2013-11-21 09:13:00,76.8,76.8,30.05,ENE,76,0.0,13.0,100,0.00,,,0.79,220.0,meteohub,2013-11-21 13:13:00,
2013-11-21 09:18:00,76.8,76.8,30.05,East,92,1.0,13.0,100,0.00,,,0.79,169.0,meteohub,2013-11-21 13:18:00,
2013-11-21 09:23:00,77.0,77.0,30.05,East,99,5.0,8.0,100,0.00,,,0.79,153.0,meteohub,2013-11-21 13:23:00,
2013-11-21 09:28:00,77.2,77.2,30.06,ESE,104,4.0,11.0,100,0.00,,,0.79,143.0,meteohub,2013-11-21 13:28:00,
2013-11-21 09:34:00,77.4,77.4,30.06,ESE,113,0.0,11.0,100,0.00,,,0.79,229.0,meteohub,2013-11-21 13:34:00,
2013-11-21 09:39:00,77.5,77.5,30.06,East,86,0.0,11.0,100,0.00,,,0.79,208.0,meteohub,2013-11-21 13:39:00,
2013-11-21 09:44:00,77.7,77.7,30.06,ENE,73,7.0,7.0,100,0.00,,,0.79,245.0,meteohub,2013-11-21 13:44:00,
2013-11-21 09:49:00,77.7,77.7,30.06,ESE,123,5.0,8.0,100,0.00,,,0.79,354.0,meteohub,2013-11-21 13:49:00,
2013-11-21 09:54:00,77.4,77.4,30.06,East,92,5.0,11.0,100,0.00,,,0.79,380.0,meteohub,2013-11-21 13:54:00,
2013-11-21 09:59:00,77.4,77.4,30.05,East,89,0.0,11.0,100,0.00,,,0.79,294.0,meteohub,2013-11-21 13:59:00,
2013-11-21 10:04:00,77.4,77.4,30.05,NE,51,5.0,11.0,100,0.00,,,0.79,438.0,meteohub,2013-11-21 14:04:00,
2013-11-21 10:09:00,77.7,77.7,30.05,ENE,78,3.0,10.0,100,0.00,,,0.79,283.0,meteohub,2013-11-21 14:09:00,
2013-11-21 10:14:00,77.9,77.9,30.05,East,100,8.0,11.0,100,0.00,,,0.79,370.0,meteohub,2013-11-21 14:14:00,
2013-11-21 10:19:00,78.1,78.1,30.05,ESE,103,2.0,13.0,100,0.00,,,0.79,382.0,meteohub,2013-11-21 14:19:00,
2013-11-21 10:24:00,79.0,78.6,30.05,East,86,0.0,13.0,99,0.00,,,0.79,764.0,meteohub,2013-11-21 14:24:00,
2013-11-21 10:29:00,79.9,79.3,30.05,East,86,0.0,13.0,98,0.00,,,0.79,413.0,meteohub,2013-11-21 14:29:00,
2013-11-21 10:34:00,80.1,78.8,30.05,ESE,119,2.0,8.0,96,0.00,,,0.79,227.0,meteohub,2013-11-21 14:34:00,
2013-11-21 10:39:00,80.8,79.5,30.05,ENE,62,4.0,8.0,96,0.00,,,0.79,232.0,meteohub,2013-11-21 14:39:00,
2013-11-21 10:44:00,81.0,79.3,30.05,East,85,0.0,10.0,95,0.00,,,0.79,238.0,meteohub,2013-11-21 14:44:00,
2013-11-21 10:49:00,80.8,78.8,30.05,ENE,71,3.0,10.0,94,0.00,,,0.79,306.0,meteohub,2013-11-21 14:49:00,
2013-11-21 10:54:00,81.0,79.0,30.05,East,82,0.0,11.0,94,0.00,,,0.79,378.0,meteohub,2013-11-21 14:54:00,
2013-11-21 10:59:00,81.0,79.0,30.04,East,82,5.0,11.0,94,0.00,,,0.79,294.0,meteohub,2013-11-21 14:59:00,
2013-11-21 11:04:00,81.1,79.0,30.04,NE,38,10.0,11.0,93,0.00,,,0.79,269.0,meteohub,2013-11-21 15:04:00,
2013-11-21 11:09:00,81.0,78.4,30.04,ENE,78,8.0,11.0,92,0.00,,,0.79,128.0,meteohub,2013-11-21 15:09:00,
2013-11-21 11:14:00,81.1,78.6,30.04,East,79,5.0,11.0,92,0.00,,,0.79,121.0,meteohub,2013-11-21 15:14:00,
2013-11-21 11:19:00,81.1,78.6,30.04,East,79,0.0,13.0,92,0.00,,,0.79,204.0,meteohub,2013-11-21 15:19:00,
2013-11-21 11:24:00,81.1,78.6,30.04,East,89,0.0,13.0,92,0.01,,,0.80,259.0,meteohub,2013-11-21 15:24:00,
2013-11-21 11:29:00,81.1,78.6,30.04,ENE,73,3.0,13.0,92,0.01,,,0.80,311.0,meteohub,2013-11-21 15:29:00,
2013-11-21 11:34:00,81.0,78.4,30.04,East,97,6.0,11.0,92,0.01,,,0.80,570.0,meteohub,2013-11-21 15:34:00,
2013-11-21 11:39:00,81.1,79.0,30.04,ENE,58,8.0,11.0,93,0.01,,,0.80,457.0,meteohub,2013-11-21 15:39:00,
2013-11-21 11:44:00,81.3,79.2,30.03,NE,47,3.0,11.0,93,0.01,,,0.80,352.0,meteohub,2013-11-21 15:44:00,
2013-11-21 11:49:00,81.3,78.8,30.03,ENE,66,0.0,10.0,92,0.01,,,0.80,271.0,meteohub,2013-11-21 15:49:00,
2013-11-21 11:54:00,81.3,78.4,30.03,NE,49,5.0,12.0,91,0.01,,,0.80,341.0,meteohub,2013-11-21 15:54:00,
2013-11-21 11:59:00,81.3,78.4,30.02,East,85,0.0,12.0,91,0.01,,,0.80,345.0,meteohub,2013-11-21 15:59:00,
2013-11-21 12:04:00,81.7,78.1,30.02,ENE,75,0.0,12.0,89,0.01,,,0.80,387.0,meteohub,2013-11-21 16:04:00,
2013-11-21 12:09:00,82.0,78.4,30.02,ENE,69,2.0,11.0,89,0.01,,,0.80,519.0,meteohub,2013-11-21 16:09:00,
2013-11-21 12:14:00,82.2,78.3,30.02,East,85,2.0,11.0,88,0.01,,,0.80,299.0,meteohub,2013-11-21 16:14:00,
2013-11-21 12:19:00,82.4,78.4,30.02,East,88,7.0,11.0,88,0.01,,,0.80,222.0,meteohub,2013-11-21 16:19:00,
2013-11-21 12:24:00,82.6,78.6,30.02,East,82,5.0,11.0,88,0.00,,,0.80,197.0,meteohub,2013-11-21 16:24:00,
2013-11-21 12:29:00,82.4,78.8,30.02,East,80,6.0,12.0,89,0.01,,,0.81,155.0,meteohub,2013-11-21 16:29:00,
2013-11-21 12:34:00,82.0,78.4,30.02,ESE,112,3.0,12.0,89,0.01,,,0.81,190.0,meteohub,2013-11-21 16:34:00,
2013-11-21 12:39:00,81.9,78.6,30.02,East,82,0.0,11.0,90,0.01,,,0.81,209.0,meteohub,2013-11-21 16:39:00,
2013-11-21 12:44:00,81.3,78.1,30.01,ENE,66,2.0,11.0,90,0.01,,,0.81,259.0,meteohub,2013-11-21 16:44:00,
2013-11-21 12:49:00,81.1,78.3,30.01,ENE,59,1.0,11.0,91,0.01,,,0.81,318.0,meteohub,2013-11-21 16:49:00,
2013-11-21 12:54:00,81.1,78.3,30.01,ENE,58,5.0,10.0,91,0.01,,,0.81,607.0,meteohub,2013-11-21 16:54:00,
2013-11-21 12:59:00,81.1,77.9,30.01,ENE,78,6.0,11.0,90,0.01,,,0.81,440.0,meteohub,2013-11-21 16:59:00,
2013-11-21 13:04:00,81.1,77.5,30.01,ESE,102,3.0,14.0,89,0.01,,,0.81,489.0,meteohub,2013-11-21 17:04:00,
2013-11-21 13:09:00,81.9,78.3,30.01,ENE,71,6.0,14.0,89,0.01,,,0.81,989.0,meteohub,2013-11-21 17:09:00,
2013-11-21 13:14:00,82.2,77.9,30.00,NE,51,8.0,14.0,87,0.01,,,0.81,255.0,meteohub,2013-11-21 17:14:00,
2013-11-21 13:19:00,82.4,77.7,30.00,East,90,0.0,13.0,86,0.01,,,0.81,303.0,meteohub,2013-11-21 17:19:00,
2013-11-21 13:24:00,82.8,78.1,30.00,NE,56,6.0,14.0,86,0.00,,,0.81,422.0,meteohub,2013-11-21 17:24:00,
2013-11-21 13:29:00,82.9,78.3,29.99,East,79,2.0,14.0,86,0.00,,,0.81,549.0,meteohub,2013-11-21 17:29:00,
2013-11-21 13:34:00,83.5,78.8,29.99,ENE,64,13.0,13.0,86,0.00,,,0.81,955.0,meteohub,2013-11-21 17:34:00,
2013-11-21 13:39:00,83.5,78.8,29.99,ENE,71,7.0,13.0,86,0.00,,,0.81,141.0,meteohub,2013-11-21 17:39:00,
2013-11-21 13:44:00,83.1,78.4,29.99,ESE,110,7.0,16.0,86,0.00,,,0.81,185.0,meteohub,2013-11-21 17:44:00,
2013-11-21 13:49:00,82.6,78.3,29.99,East,90,6.0,16.0,87,0.00,,,0.81,250.0,meteohub,2013-11-21 17:49:00,
2013-11-21 13:54:00,82.4,78.4,29.99,SE,127,0.0,16.0,88,0.00,,,0.81,327.0,meteohub,2013-11-21 17:54:00,
2013-11-21 13:59:00,82.0,78.1,29.98,ESE,121,7.0,12.0,88,0.00,,,0.81,450.0,meteohub,2013-11-21 17:59:00,
2013-11-21 14:04:00,81.7,77.7,29.98,SE,137,5.0,12.0,88,0.00,,,0.81,347.0,meteohub,2013-11-21 18:04:00,
2013-11-21 14:09:00,81.1,77.2,29.98,East,100,5.0,10.0,88,0.00,,,0.81,306.0,meteohub,2013-11-21 18:09:00,
2013-11-21 14:14:00,81.0,77.4,29.98,ESE,107,5.0,11.0,89,0.00,,,0.81,264.0,meteohub,2013-11-21 18:14:00,
2013-11-21 14:19:00,81.0,77.7,29.98,East,89,0.0,11.0,90,0.00,,,0.81,257.0,meteohub,2013-11-21 18:19:00,
2013-11-21 14:24:00,81.0,78.1,29.98,East,90,0.0,11.0,91,0.00,,,0.81,250.0,meteohub,2013-11-21 18:24:00,
2013-11-21 14:29:00,81.0,78.1,29.98,East,90,0.0,8.0,91,0.00,,,0.81,262.0,meteohub,2013-11-21 18:29:00,
2013-11-21 14:34:00,81.0,78.1,29.98,ENE,59,5.0,6.0,91,0.00,,,0.81,248.0,meteohub,2013-11-21 18:34:00,
2013-11-21 14:39:00,81.0,78.1,29.98,East,85,3.0,8.0,91,0.00,,,0.81,218.0,meteohub,2013-11-21 18:39:00,
2013-11-21 14:44:00,81.0,78.1,29.98,ENE,62,8.0,10.0,91,0.00,,,0.81,202.0,meteohub,2013-11-21 18:44:00,
2013-11-21 14:49:00,81.0,77.7,29.98,ENE,78,0.0,11.0,90,0.00,,,0.81,192.0,meteohub,2013-11-21 18:49:00,
2013-11-21 14:54:00,81.1,77.9,29.98,ENE,66,8.0,13.0,90,0.00,,,0.81,194.0,meteohub,2013-11-21 18:54:00,
2013-11-21 14:59:00,81.1,77.9,29.98,NE,44,6.0,13.0,90,0.00,,,0.81,238.0,meteohub,2013-11-21 18:59:00,
2013-11-21 15:04:00,81.1,77.5,29.98,East,92,5.0,12.0,89,0.00,,,0.81,236.0,meteohub,2013-11-21 19:04:00,
2013-11-21 15:09:00,81.1,77.2,29.98,NE,37,6.0,12.0,88,0.00,,,0.81,223.0,meteohub,2013-11-21 19:09:00,
2013-11-21 15:14:00,81.1,77.2,29.98,ENE,78,5.0,12.0,88,0.00,,,0.81,164.0,meteohub,2013-11-21 19:14:00,
2013-11-21 15:19:00,81.1,77.2,29.98,ESE,121,7.0,11.0,88,0.00,,,0.81,169.0,meteohub,2013-11-21 19:19:00,
2013-11-21 15:24:00,81.1,77.2,29.98,ESE,106,7.0,11.0,88,0.00,,,0.81,151.0,meteohub,2013-11-21 19:24:00,
2013-11-21 15:29:00,81.1,77.2,29.98,ENE,66,7.0,12.0,88,0.00,,,0.81,157.0,meteohub,2013-11-21 19:29:00,
2013-11-21 15:34:00,81.1,76.8,29.98,ENE,58,6.0,12.0,87,0.00,,,0.81,150.0,meteohub,2013-11-21 19:34:00,
2013-11-21 15:39:00,81.1,77.2,29.98,ENE,73,4.0,12.0,88,0.00,,,0.81,118.0,meteohub,2013-11-21 19:39:00,
2013-11-21 15:44:00,81.1,77.2,29.98,ESE,114,8.0,11.0,88,0.00,,,0.81,102.0,meteohub,2013-11-21 19:44:00,
2013-11-21 15:49:00,81.1,77.2,29.98,East,90,0.0,11.0,88,0.00,,,0.81,88.0,meteohub,2013-11-21 19:49:00,
2013-11-21 15:54:00,81.0,76.6,29.98,ENE,75,6.0,9.0,87,0.00,,,0.81,91.0,meteohub,2013-11-21 19:54:00,
2013-11-21 15:59:00,80.8,76.5,29.97,ENE,65,0.0,8.0,87,0.00,,,0.81,123.0,meteohub,2013-11-21 19:59:00,
2013-11-21 16:04:00,80.8,76.3,29.97,ENE,64,2.0,9.0,86,0.00,,,0.81,109.0,meteohub,2013-11-21 20:04:00,
2013-11-21 16:09:00,80.4,75.9,29.97,East,99,2.0,9.0,86,0.00,,,0.81,93.0,meteohub,2013-11-21 20:09:00,
2013-11-21 16:14:00,81.0,76.6,29.97,East,85,7.0,11.0,87,0.00,,,0.81,88.0,meteohub,2013-11-21 20:14:00,
2013-11-21 16:19:00,81.0,76.6,29.97,NE,56,4.0,13.0,87,0.00,,,0.81,109.0,meteohub,2013-11-21 20:19:00,
2013-11-21 16:24:00,81.0,76.6,29.97,NE,56,5.0,13.0,87,0.00,,,0.81,125.0,meteohub,2013-11-21 20:24:00,
2013-11-21 16:29:00,81.0,76.6,29.98,NE,49,2.0,13.0,87,0.00,,,0.81,174.0,meteohub,2013-11-21 20:29:00,
2013-11-21 16:34:00,81.1,77.2,29.98,ENE,75,5.0,12.0,88,0.00,,,0.81,151.0,meteohub,2013-11-21 20:34:00,
2013-11-21 16:39:00,81.1,77.2,29.98,NE,40,5.0,12.0,88,0.00,,,0.81,134.0,meteohub,2013-11-21 20:39:00,
2013-11-21 16:45:00,81.1,77.2,29.98,ENE,58,1.0,11.0,88,0.00,,,0.81,125.0,meteohub,2013-11-21 20:45:00,
2013-11-21 16:50:00,81.1,77.2,29.98,ENE,68,0.0,13.0,88,0.00,,,0.81,113.0,meteohub,2013-11-21 20:50:00,
2013-11-21 16:55:00,81.1,77.5,29.98,East,79,0.0,13.0,89,0.00,,,0.81,106.0,meteohub,2013-11-21 20:55:00,
2013-11-21 17:00:00,81.1,77.5,29.98,ENE,58,5.0,13.0,89,0.00,,,0.81,93.0,meteohub,2013-11-21 21:00:00,
2013-11-21 17:05:00,81.1,77.5,29.98,NE,44,3.0,11.0,89,0.00,,,0.81,93.0,meteohub,2013-11-21 21:05:00,
2013-11-21 17:10:00,81.1,77.5,29.98,NE,45,8.0,8.0,89,0.00,,,0.81,39.0,meteohub,2013-11-21 21:10:00,
2013-11-21 17:15:00,81.1,78.3,29.98,NNE,31,8.0,8.0,91,0.00,,,0.81,21.0,meteohub,2013-11-21 21:15:00,
2013-11-21 17:20:00,80.8,77.9,29.98,NE,41,6.0,13.0,91,0.02,,,0.83,19.0,meteohub,2013-11-21 21:20:00,
2013-11-21 17:25:00,80.1,77.5,29.98,NNE,31,0.0,13.0,92,0.07,,,0.88,11.0,meteohub,2013-11-21 21:25:00,
2013-11-21 17:30:00,79.9,77.7,29.98,NE,38,4.0,13.0,93,0.08,,,0.89,9.0,meteohub,2013-11-21 21:30:00,
2013-11-21 17:35:00,79.0,77.2,29.98,North,3,11.0,13.0,94,0.08,,,0.89,7.0,meteohub,2013-11-21 21:35:00,
2013-11-21 17:40:00,78.6,76.8,29.98,NE,56,6.0,14.0,94,0.08,,,0.89,0.0,meteohub,2013-11-21 21:40:00,
2013-11-21 17:45:00,78.3,76.6,29.99,NE,51,0.0,14.0,95,0.08,,,0.89,0.0,meteohub,2013-11-21 21:45:00,
2013-11-21 17:50:00,78.1,76.8,29.99,NE,52,0.0,14.0,96,0.08,,,0.89,0.0,meteohub,2013-11-21 21:50:00,
2013-11-21 17:55:00,77.9,76.6,29.99,NE,56,0.0,11.0,96,0.08,,,0.89,0.0,meteohub,2013-11-21 21:55:00,
2013-11-21 18:00:00,77.9,76.6,29.98,NE,44,0.0,11.0,96,0.09,,,0.90,0.0,meteohub,2013-11-21 22:00:00,
2013-11-21 18:05:00,77.7,76.8,29.98,NNE,21,0.0,8.0,97,0.09,,,0.90,0.0,meteohub,2013-11-21 22:05:00,
2013-11-21 18:10:00,77.5,76.6,29.98,NNE,20,0.0,2.0,97,0.09,,,0.90,0.0,meteohub,2013-11-21 22:10:00,
2013-11-21 18:15:00,77.4,76.5,29.99,NNE,21,0.0,0.0,97,0.09,,,0.90,0.0,meteohub,2013-11-21 22:15:00,
2013-11-21 18:20:00,77.4,76.8,29.99,NE,49,3.0,0.0,98,0.07,,,0.91,0.0,meteohub,2013-11-21 22:20:00,
2013-11-21 18:25:00,77.4,76.8,29.99,NNE,21,0.0,7.0,98,0.03,,,0.92,0.0,meteohub,2013-11-21 22:25:00,
2013-11-21 18:30:00,77.2,76.6,29.99,NNE,24,6.0,7.0,98,0.03,,,0.92,0.0,meteohub,2013-11-21 22:30:00,
2013-11-21 18:35:00,76.8,76.3,29.99,North,7,0.0,10.0,98,0.03,,,0.93,0.0,meteohub,2013-11-21 22:35:00,
2013-11-21 18:40:00,76.8,76.5,29.99,North,8,0.0,10.0,99,0.04,,,0.93,0.0,meteohub,2013-11-21 22:40:00,
2013-11-21 18:45:00,76.6,76.3,29.99,North,8,0.0,10.0,99,0.04,,,0.93,0.0,meteohub,2013-11-21 22:45:00,
2013-11-21 18:50:00,76.6,76.3,29.99,North,8,0.0,10.0,99,0.04,,,0.93,0.0,meteohub,2013-11-21 22:50:00,
2013-11-21 18:55:00,76.6,76.3,29.99,North,6,0.0,0.0,99,0.04,,,0.93,0.0,meteohub,2013-11-21 22:55:00,
2013-11-21 19:00:00,76.8,76.8,29.99,North,8,0.0,0.0,100,0.03,,,0.93,0.0,meteohub,2013-11-21 23:00:00,
2013-11-21 19:05:00,77.0,77.0,29.99,North,1,0.0,0.0,100,0.10,,,1.00,0.0,meteohub,2013-11-21 23:05:00,
2013-11-21 19:10:00,77.0,77.0,29.99,North,354,6.0,11.0,100,0.14,,,1.04,0.0,meteohub,2013-11-21 23:10:00,
2013-11-21 19:15:00,76.6,76.6,30.00,North,0,3.0,11.0,100,0.15,,,1.06,0.0,meteohub,2013-11-21 23:15:00,
2013-11-21 19:20:00,76.5,76.5,30.00,NNE,23,8.0,10.0,100,0.17,,,1.08,0.0,meteohub,2013-11-21 23:20:00,
2013-11-21 19:25:00,76.5,76.5,30.00,ENE,64,0.0,11.0,100,0.16,,,1.08,0.0,meteohub,2013-11-21 23:25:00,
2013-11-21 19:30:00,76.5,76.5,30.01,NE,51,0.0,11.0,100,0.16,,,1.08,0.0,meteohub,2013-11-21 23:30:00,
2013-11-21 19:35:00,76.5,76.5,30.01,NE,51,0.0,11.0,100,0.15,,,1.08,0.0,meteohub,2013-11-21 23:35:00,
2013-11-21 19:40:00,76.3,76.3,30.01,NNE,28,0.0,7.0,100,0.15,,,1.08,0.0,meteohub,2013-11-21 23:40:00,
2013-11-21 19:45:00,76.1,76.1,30.01,NNE,25,0.0,0.0,100,0.15,,,1.08,0.0,meteohub,2013-11-21 23:45:00,
2013-11-21 19:50:00,76.1,76.1,30.01,NNE,24,0.0,0.0,100,0.16,,,1.09,0.0,meteohub,2013-11-21 23:50:00,
2013-11-21 19:55:00,76.1,76.1,30.01,NNE,27,0.0,0.0,100,0.17,,,1.10,0.0,meteohub,2013-11-21 23:55:00,
2013-11-21 20:00:00,76.1,76.1,30.02,NNE,27,0.0,0.0,100,0.16,,,1.11,0.0,meteohub,2013-11-22 00:00:00,
2013-11-21 20:05:00,75.9,75.9,30.02,NNE,25,0.0,0.0,100,0.08,,,1.11,0.0,meteohub,2013-11-22 00:05:00,
2013-11-21 20:10:00,76.1,76.1,30.02,NNE,25,0.0,0.0,100,0.08,,,1.12,0.0,meteohub,2013-11-22 00:10:00,
2013-11-21 20:16:00,76.1,76.1,30.01,NNE,27,0.0,0.0,100,0.05,,,1.12,0.0,meteohub,2013-11-22 00:16:00,
2013-11-21 20:21:00,76.1,76.1,30.01,NNE,25,0.0,0.0,100,0.04,,,1.12,0.0,meteohub,2013-11-22 00:21:00,
2013-11-21 20:26:00,76.1,76.1,30.01,NNE,27,0.0,0.0,100,0.04,,,1.12,0.0,meteohub,2013-11-22 00:26:00,
2013-11-21 20:31:00,76.1,76.1,30.01,NNE,25,0.0,0.0,100,0.04,,,1.12,0.0,meteohub,2013-11-22 00:31:00,
2013-11-21 20:36:00,76.3,76.3,30.01,NNE,25,0.0,0.0,100,0.04,,,1.12,0.0,meteohub,2013-11-22 00:36:00,
2013-11-21 20:41:00,76.1,76.1,30.01,NNE,25,0.0,0.0,100,0.04,,,1.12,0.0,meteohub,2013-11-22 00:41:00,
2013-11-21 20:46:00,76.1,76.1,30.02,NNE,25,0.0,0.0,100,0.03,,,1.12,0.0,meteohub,2013-11-22 00:46:00,
2013-11-21 20:51:00,76.1,76.1,30.02,NNE,25,0.0,0.0,100,0.02,,,1.12,0.0,meteohub,2013-11-22 00:51:00,
2013-11-21 20:56:00,76.1,76.1,30.02,NNE,28,0.0,0.0,100,0.02,,,1.12,0.0,meteohub,2013-11-22 00:56:00,
2013-11-21 21:01:00,76.3,76.3,30.02,NNE,25,0.0,0.0,100,0.01,,,1.12,0.0,meteohub,2013-11-22 01:01:00,
2013-11-21 21:06:00,76.3,76.3,30.02,NNE,27,0.0,0.0,100,0.00,,,1.12,0.0,meteohub,2013-11-22 01:06:00,
2013-11-21 21:11:00,76.3,76.3,30.02,SSE,165,0.0,0.0,100,0.00,,,1.12,0.0,meteohub,2013-11-22 01:11:00,
2013-11-21 21:16:00,76.3,76.3,30.02,ESE,117,3.0,7.0,100,0.00,,,1.12,0.0,meteohub,2013-11-22 01:16:00,
2013-11-21 21:21:00,76.5,76.5,30.02,NE,38,6.0,8.0,100,0.00,,,1.12,0.0,meteohub,2013-11-22 01:21:00,
2013-11-21 21:26:00,76.5,76.5,30.02,North,8,9.0,12.0,100,0.01,,,1.13,0.0,meteohub,2013-11-22 01:26:00,
2013-11-21 21:31:00,76.1,76.1,30.02,ENE,58,11.0,13.0,100,0.01,,,1.13,0.0,meteohub,2013-11-22 01:31:00,
2013-11-21 21:36:00,75.7,75.7,30.02,NNE,30,11.0,18.0,100,0.03,,,1.15,0.0,meteohub,2013-11-22 01:36:00,
2013-11-21 21:41:00,75.4,75.4,30.02,NE,34,4.0,24.0,100,0.10,,,1.22,0.0,meteohub,2013-11-22 01:41:00,
2013-11-21 21:46:00,75.4,75.4,30.02,NE,41,5.0,24.0,100,0.19,,,1.31,0.0,meteohub,2013-11-22 01:46:00,
2013-11-21 21:51:00,75.4,75.4,30.02,NE,42,0.0,17.0,100,0.33,,,1.45,0.0,meteohub,2013-11-22 01:51:00,
2013-11-21 21:56:00,75.4,75.4,30.02,NNE,23,5.0,12.0,100,0.43,,,1.49,0.0,meteohub,2013-11-22 01:56:00,
2013-11-21 22:01:00,75.4,75.4,30.02,NNE,27,0.0,12.0,100,0.48,,,1.60,0.0,meteohub,2013-11-22 02:01:00,
2013-11-21 22:06:00,75.6,75.6,30.02,ENE,76,0.0,10.0,100,0.61,,,1.73,0.0,meteohub,2013-11-22 02:06:00,
2013-11-21 22:08:00,75.6,75.6,30.02,ENE,76,0.0,10.0,100,0.61,,,1.73,0.0,meteohub,2013-11-22 02:08:00,
2013-11-21 22:09:00,75.6,75.6,30.02,ENE,76,0.0,10.0,100,0.61,,,1.73,0.0,meteohub,2013-11-22 02:09:00,
2013-11-21 22:10:00,75.6,75.6,30.02,ENE,76,0.0,10.0,100,0.72,,,1.84,0.0,meteohub,2013-11-22 02:10:00,
2013-11-21 22:15:00,75.7,75.7,30.02,ENE,76,0.0,0.0,100,0.80,,,1.92,0.0,meteohub,2013-11-22 02:15:00,
2013-11-21 22:20:00,75.7,75.7,30.02,SE,144,0.0,11.0,100,0.91,,,2.04,0.0,meteohub,2013-11-22 02:20:00,
2013-11-21 22:26:00,75.7,75.7,30.02,ESE,119,6.0,11.0,100,0.96,,,2.09,0.0,meteohub,2013-11-22 02:26:00,
2013-11-21 22:31:00,75.6,75.6,30.03,ESE,112,0.0,17.0,100,1.01,,,2.14,0.0,meteohub,2013-11-22 02:31:00,
2013-11-21 22:36:00,75.6,75.6,30.03,ESE,112,0.0,17.0,100,0.99,,,2.17,0.0,meteohub,2013-11-22 02:36:00,
2013-11-21 22:41:00,75.4,75.4,30.03,East,95,3.0,17.0,100,0.94,,,2.17,0.0,meteohub,2013-11-22 02:41:00,
2013-11-21 22:46:00,75.0,75.0,30.03,East,82,6.0,13.0,100,0.79,,,2.17,0.0,meteohub,2013-11-22 02:46:00,
2013-11-21 22:51:00,74.7,74.7,30.03,ENE,75,16.0,16.0,100,0.70,,,2.17,0.0,meteohub,2013-11-22 02:51:00,
2013-11-21 22:56:00,73.9,73.9,30.03,East,86,5.0,19.0,100,0.62,,,2.17,0.0,meteohub,2013-11-22 02:56:00,
2013-11-21 23:01:00,73.8,73.8,30.02,East,79,7.0,19.0,100,0.54,,,2.17,0.0,meteohub,2013-11-22 03:01:00,
2013-11-21 23:06:00,73.8,73.8,30.02,ENE,58,0.0,19.0,100,0.39,,,2.17,0.0,meteohub,2013-11-22 03:06:00,
2013-11-21 23:11:00,73.8,73.8,30.02,ENE,78,5.0,19.0,100,0.27,,,2.17,0.0,meteohub,2013-11-22 03:11:00,
2013-11-21 23:16:00,73.8,73.8,30.02,East,79,8.0,14.0,100,0.22,,,2.17,0.0,meteohub,2013-11-22 03:16:00,
2013-11-21 23:21:00,73.8,73.8,30.02,ENE,58,6.0,14.0,100,0.11,,,2.17,0.0,meteohub,2013-11-22 03:21:00,
2013-11-21 23:26:00,73.9,73.9,30.02,East,80,3.0,14.0,100,0.05,,,2.17,0.0,meteohub,2013-11-22 03:26:00,
2013-11-21 23:31:00,73.9,73.9,30.02,ENE,76,2.0,14.0,100,0.02,,,2.17,0.0,meteohub,2013-11-22 03:31:00,
2013-11-21 23:36:00,73.9,73.9,30.02,ENE,71,0.0,8.0,100,0.00,,,2.17,0.0,meteohub,2013-11-22 03:36:00,
2013-11-21 23:41:00,74.1,74.1,30.02,ENE,71,1.0,8.0,100,0.00,,,2.17,0.0,meteohub,2013-11-22 03:41:00,
2013-11-21 23:46:00,74.5,74.5,30.01,ENE,58,0.0,8.0,100,0.00,,,2.17,0.0,meteohub,2013-11-22 03:46:00,
2013-11-21 23:51:00,74.5,74.5,30.01,ENE,64,0.0,6.0,100,0.00,,,2.17,0.0,meteohub,2013-11-22 03:51:00,
2013-11-21 23:56:00,74.7,74.7,30.01,ENE,62,0.0,6.0,100,0.00,,,2.17,0.0,meteohub,2013-11-22 03:56:00,